Date String (YYYY-MM-DD hh:mm:ss) UTC,Instrument flags,absolute air pressure of the measurement (hPa),sample flow rate (lpm),inlet stack bypass flow (lpm),air temperature of the measurement (°C),ambient temperature measured by the external sensor (°C),aerosol sample conditioner tube jacket temperature (°C),OPC LED temperature (°C),internal box temperature (°C),relative humidity of the measurement (%),span deviation,mass concentration of particles derived from Lorenz-Mie calculation of OPC scattering (μg/m³),mass concentration of particles derived from Lorenz-Mie calculation of OPC scattering (μg/m³),mass concentration of particles derived from Lorenz-Mie calculation of OPC scattering (μg/m³)
DateTimeUTC,F1_M11,P_M11,Q1_M11,Q2_M11,T1_M11,T2_M11,T3_M11,T4_M11,T5_M11,U1_M11,ZSPAN_M11,X0_M11,X2_M11,X1_M11
2023-08-04 20:00:00,SystemResetWarning,0831.4,4.99,000.00,028.6,026.1,000.0,036.9,030.2,21.9,0000.0,0009.62,0003.47,0003.05
2023-08-04 20:01:00,SystemResetWarning,0831.4,5.01,000.00,028.6,026.5,000.0,036.9,030.3,22.4,0000.0,0009.56,0003.45,0003.06
2023-08-04 20:02:00,SystemResetWarning,0831.5,5.00,000.00,028.7,026.9,000.0,037.0,030.4,22.2,0000.0,0009.34,0003.47,0003.08
2023-08-04 20:03:00,SystemResetWarning,0831.5,5.00,000.00,028.7,027.2,000.0,037.0,030.5,21.0,0000.0,0009.24,0003.45,0003.07
2023-08-04 20:04:00,SystemResetWarning,0831.5,5.00,000.00,028.8,026.9,000.0,037.0,030.5,20.9,0000.0,0009.03,0003.45,0003.05
2023-08-04 20:05:00,SystemResetWarning,0831.5,4.98,000.00,028.7,025.5,000.0,036.9,030.2,21.3,0000.0,0008.56,0003.47,0003.01
2023-08-04 20:06:00,SystemResetWarning,0831.5,5.02,000.00,028.7,024.9,000.0,036.8,030.1,21.5,0000.0,0008.05,0003.46,0002.97
2023-08-04 20:07:00,SystemResetWarning,0831.5,5.00,000.00,028.6,025.1,000.0,036.8,030.0,22.1,0000.0,0008.74,0003.44,0002.91
2023-08-04 20:08:00,SystemResetWarning,0831.5,4.98,000.00,028.6,025.5,000.0,036.9,030.0,22.1,0000.0,0008.82,0003.45,0002.87
2023-08-04 20:09:00,SystemResetWarning,0831.5,5.00,000.00,028.6,025.9,000.0,036.9,030.2,21.7,0000.0,0008.61,0003.42,0002.79
2023-08-04 20:10:00,SystemResetWarning,0831.5,5.00,000.00,028.7,026.4,000.0,036.9,030.3,21.4,0000.0,0008.59,0003.39,0002.75
2023-08-04 20:11:00,SystemResetWarning,0831.5,5.01,000.00,028.7,026.8,000.0,037.0,030.4,19.9,0000.0,0008.54,0003.35,0002.70
2023-08-04 20:12:00,SystemResetWarning,0831.5,5.00,000.00,028.7,027.1,000.0,037.0,030.5,19.9,0000.0,0008.43,0003.35,0002.66
2023-08-04 20:13:00,SystemResetWarning,0831.4,4.97,000.00,028.8,026.2,000.0,036.9,030.4,18.9,0000.0,0008.33,0003.32,0002.62
2023-08-04 20:14:00,SystemResetWarning,0831.4,5.02,000.00,028.7,025.0,000.0,036.8,030.2,19.4,0000.0,0008.37,0003.30,0002.60
2023-08-04 20:15:00,SystemResetWarning,0831.3,5.01,000.00,028.7,024.9,000.0,036.8,030.1,20.3,0000.0,0008.43,0003.31,0002.59
2023-08-04 20:16:00,SystemResetWarning,0831.2,5.00,000.00,028.6,025.2,000.0,036.8,030.1,21.5,0000.0,0009.21,0003.27,0002.58
2023-08-04 20:17:00,SystemResetWarning,0831.2,5.00,000.00,028.6,025.7,000.0,036.8,030.1,22.0,0000.0,0009.22,0003.27,0002.58
2023-08-04 20:18:00,SystemResetWarning,0831.3,5.00,000.00,028.6,026.2,000.0,036.9,030.2,21.9,0000.0,0008.47,0003.25,0002.58
2023-08-04 20:19:00,SystemResetWarning,0831.2,5.00,000.00,028.6,026.6,000.0,036.9,030.3,21.9,0000.0,0007.61,0003.24,0002.58
2023-08-04 20:20:00,SystemResetWarning,0831.3,5.00,000.00,028.7,027.0,000.0,036.9,030.4,21.8,0000.0,0007.51,0003.22,0002.57
2023-08-04 20:21:00,SystemResetWarning,0831.3,4.99,000.00,028.7,026.8,000.0,036.9,030.4,22.1,0000.0,0007.45,0003.21,0002.58
2023-08-04 20:22:00,SystemResetWarning,0831.3,4.99,000.00,028.7,025.3,000.0,036.8,030.2,22.4,0000.0,0007.57,0003.23,0002.59
2023-08-04 20:23:00,SystemResetWarning,0831.3,5.01,000.00,028.6,024.7,000.0,036.7,030.1,22.6,0000.0,0007.59,0003.22,0002.60
2023-08-04 20:24:00,SystemResetWarning,0831.3,5.01,000.00,028.6,024.9,000.0,036.7,030.0,22.8,0000.0,0007.66,0003.22,0002.59
2023-08-04 20:25:00,SystemResetWarning,0831.3,5.00,000.00,028.5,025.3,000.0,036.8,029.9,22.7,0000.0,0007.55,0003.20,0002.56
2023-08-04 20:26:00,SystemResetWarning,0831.3,4.99,000.00,028.5,025.8,000.0,036.8,030.0,23.0,0000.0,0007.44,0003.17,0002.54
2023-08-04 20:27:00,SystemResetWarning,0831.3,5.00,000.00,028.6,026.3,000.0,036.8,030.1,22.5,0000.0,0006.26,0003.19,0002.54
2023-08-04 20:28:00,SystemResetWarning,0831.3,5.01,000.00,028.6,026.7,000.0,036.9,030.2,23.0,0000.0,0005.90,0003.18,0002.52
2023-08-04 20:29:00,SystemResetWarning,0831.3,5.01,000.00,028.6,027.1,000.0,036.9,030.3,23.0,0000.0,0005.96,0003.20,0002.50
2023-08-04 20:30:00,SystemResetWarning,0831.3,4.99,000.00,028.7,026.9,000.0,036.9,030.4,23.1,0000.0,0005.52,0003.18,0002.49
2023-08-04 20:31:00,SystemResetWarning,0831.2,4.99,000.00,028.7,025.5,000.0,036.8,030.1,23.4,0000.0,0005.16,0003.18,0002.47
2023-08-04 20:32:00,SystemResetWarning,0831.2,5.02,000.00,028.6,024.8,000.0,036.7,030.0,22.5,0000.0,0004.88,0003.14,0002.44
2023-08-04 20:33:00,SystemResetWarning,0831.1,5.00,000.00,028.5,025.0,000.0,036.7,029.9,22.6,0000.0,0004.73,0003.09,0002.39
2023-08-04 20:34:00,SystemResetWarning,0831.2,5.00,000.00,028.5,025.4,000.0,036.7,029.9,22.9,0000.0,0004.68,0003.02,0002.34
2023-08-04 20:35:00,SystemResetWarning,0831.2,5.00,000.00,028.5,025.8,000.0,036.8,030.0,23.2,0000.0,0004.60,0002.99,0002.29
2023-08-04 20:36:00,SystemResetWarning,0831.2,5.00,000.00,028.5,026.3,000.0,036.8,030.1,23.0,0000.0,0004.67,0002.99,0002.27
2023-08-04 20:37:00,SystemResetWarning,0831.2,4.99,000.00,028.6,026.7,000.0,036.8,030.2,23.1,0000.0,0004.91,0002.96,0002.23
2023-08-04 20:38:00,SystemResetWarning,0831.2,5.00,000.00,028.6,027.1,000.0,036.9,030.3,23.3,0000.0,0006.60,0002.94,0002.17
2023-08-04 20:39:00,SystemResetWarning,0831.2,4.99,000.00,028.7,027.0,000.0,036.9,030.4,23.3,0000.0,0006.98,0002.91,0002.13
2023-08-04 20:40:00,SystemResetWarning,0831.2,4.99,000.00,028.7,025.7,000.0,036.8,030.3,23.6,0000.0,0007.01,0002.85,0002.10
2023-08-04 20:41:00,SystemResetWarning,0831.2,5.01,000.00,028.6,024.8,000.0,036.7,030.1,24.2,0000.0,0007.18,0002.84,0002.06
2023-08-04 20:42:00,SystemResetWarning,0831.2,5.01,000.00,028.6,025.0,000.0,036.7,030.0,23.4,0000.0,0008.14,0002.81,0002.03
2023-08-04 20:43:00,SystemResetWarning,0831.2,5.01,000.00,028.5,025.4,000.0,036.7,030.0,23.1,0000.0,0008.29,0002.79,0001.99
2023-08-04 20:44:00,SystemResetWarning,0831.2,4.99,000.00,028.5,025.9,000.0,036.8,030.0,23.6,0000.0,0008.35,0002.79,0001.97
2023-08-04 20:45:00,SystemResetWarning,0831.2,5.00,000.00,028.6,026.3,000.0,036.8,030.2,23.0,0000.0,0008.33,0002.81,0001.95
2023-08-04 20:46:00,SystemResetWarning,0831.2,5.01,000.00,028.6,026.8,000.0,036.8,030.3,23.3,0000.0,0008.30,0002.77,0001.94
2023-08-04 20:47:00,SystemResetWarning,0831.2,4.99,000.00,028.6,027.1,000.0,036.9,030.4,23.3,0000.0,0008.24,0002.72,0001.92
2023-08-04 20:48:00,SystemResetWarning,0831.2,4.98,000.00,028.7,026.3,000.0,036.8,030.3,23.1,0000.0,0008.08,0002.68,0001.92
2023-08-04 20:49:00,SystemResetWarning,0831.1,5.01,000.00,028.6,025.0,000.0,036.7,030.1,23.3,0000.0,0006.80,0002.62,0001.93
2023-08-04 20:50:00,SystemResetWarning,0831.2,5.01,000.00,028.6,024.7,000.0,036.7,030.0,23.1,0000.0,0006.68,0002.56,0001.92
2023-08-04 20:51:00,SystemResetWarning,0831.1,5.00,000.00,028.5,025.0,000.0,036.7,029.9,24.0,0000.0,0007.57,0002.52,0001.91
2023-08-04 20:52:00,SystemResetWarning,0831.1,5.00,000.00,028.5,025.5,000.0,036.7,030.0,24.3,0000.0,0007.52,0002.54,0001.90
2023-08-04 20:53:00,SystemResetWarning,0831.1,5.00,000.00,028.5,026.0,000.0,036.7,030.1,24.0,0000.0,0005.97,0002.51,0001.90
2023-08-04 20:54:00,SystemResetWarning,0831.2,5.00,000.00,028.5,026.4,000.0,036.8,030.2,22.3,0000.0,0005.73,0002.49,0001.90
2023-08-04 20:55:00,SystemResetWarning,0831.1,4.99,000.00,028.6,026.8,000.0,036.8,030.3,22.6,0000.0,0005.48,0002.49,0001.90
2023-08-04 20:56:00,SystemResetWarning,0831.1,5.00,000.00,028.6,027.2,000.0,036.8,030.4,22.6,0000.0,0005.26,0002.47,0001.90
2023-08-04 20:57:00,SystemResetWarning,0831.2,5.00,000.00,028.7,027.2,000.0,036.9,030.5,22.0,0000.0,0004.92,0002.37,0001.88
2023-08-04 20:58:00,SystemResetWarning,0831.2,4.98,000.00,028.7,025.9,000.0,036.8,030.3,22.4,0000.0,0004.86,0002.34,0001.87
2023-08-04 20:59:00,SystemResetWarning,0831.2,5.01,000.00,028.6,025.0,000.0,036.7,030.2,22.3,0000.0,0004.80,0002.31,0001.86
